Location: Budapest
(47.4979°N, 19.0402°E)
Time: 10:05:55
(UTC+02:00)

Envisat - Pass Details

Date: 25 May 2024
Orbit: 762 x 764 km, 98.3° (Epoch: 19 June)

Event Time Altitude Azimuth Distance (km) Brightness Sun altitude
Rises 03:55:42 0° 16° (NNE) 3,239 7.4 -8.7°
Reaches altitude 10° 03:58:02 10° 19° (NNE) 2,308 6.6 -8.4°
Maximum altitude 04:03:05 66° 102° (ESE) 834 3.4 -7.8°
Drops below altitude 10° 04:08:07 10° 184° (S) 2,290 5.0 -7.2°
Sets 04:10:25 0° 188° (S) 3,211 5.8 -6.9°
Enters shadow 04:10:27 - 188° (S) 3,221 5.8 -6.9°
